,,Stat5,,Stat1,,Stat2,,Stat3,,Stat4,,Wind1,,Wind1,
time,status,PA1M_AVG,status,PR1M_SUM,status,RH1M_AVG,status,SR1M_AVG,status,TA1M_AVG,status,W1dAve1m,status,W1sAve1m,
2003-06-05, 00:00:00,VALID,917.363,VALID,0,VALID,84.287,VALID,-0.0169808,VALID,20.7954,VALID,41,VALID,1.30511,
2003-06-05, 00:01:00,VALID,917.347,VALID,0,VALID,83.7008,VALID,0,VALID,20.8573,VALID,44,VALID,1.5209,
2003-06-05, 00:02:00,VALID,917.334,VALID,0,VALID,83.4605,VALID,-0.0169808,VALID,20.9057,VALID,61,VALID,1.31517,
2003-06-05, 00:03:00,VALID,917.337,VALID,0,VALID,83.4605,VALID,0,VALID,20.9249,VALID,44,VALID,1.77977,
2003-06-05, 00:04:00,VALID,917.327,VALID,0,VALID,82.7497,VALID,-0.0169808,VALID,21.0188,VALID,57,VALID,1.70726,
2003-06-05, 00:05:00,VALID,917.333,VALID,0,VALID,82.2563,VALID,-0.0169808,VALID,21.0928,VALID,63,VALID,1.98047,
2003-06-05, 00:06:00,VALID,917.33,VALID,0,VALID,81.7489,VALID,0,VALID,21.2254,VALID,44,VALID,1.4391,
2003-06-05, 00:07:00,VALID,917.33,VALID,0,VALID,81.8189,VALID,-0.0169808,VALID,21.2158,VALID,50,VALID,1.18424,
2003-06-05, 00:08:00,VALID,917.334,VALID,0,VALID,81.7311,VALID,-0.0169808,VALID,21.2287,VALID,68,VALID,2.36038,
2003-06-05, 00:09:00,VALID,917.317,VALID,0,VALID,81.1055,VALID,0,VALID,21.3635,VALID,52,VALID,1.34607,
2003-06-05, 00:10:00,VALID,917.325,VALID,0,VALID,80.9847,VALID,0,VALID,21.3998,VALID,46,VALID,1.90951,
2003-06-05, 00:11:00,VALID,917.316,VALID,0,VALID,80.9097,VALID,0,VALID,21.4095,VALID,30,VALID,1.66687,
2003-06-05, 00:12:00,VALID,917.31,VALID,0,VALID,81.0902,VALID,0,VALID,21.3729,VALID,51,VALID,1.36211,
2003-06-05, 00:13:00,VALID,917.31,VALID,0,VALID,81.0712,VALID,0,VALID,21.3797,VALID,48,VALID,1.09293,
2003-06-05, 00:14:00,VALID,917.302,VALID,0,VALID,81.2886,VALID,0,VALID,21.3673,VALID,34,VALID,1.31841,
2003-06-05, 00:15:00,VALID,917.302,VALID,0,VALID,81.6332,VALID,0,VALID,21.3317,VALID,53,VALID,1.21159,
2003-06-05, 00:16:00,VALID,917.294,VALID,0,VALID,81.6357,VALID,0,VALID,21.3352,VALID,46,VALID,1.2084,
2003-06-05, 00:17:00,VALID,917.311,VALID,0,VALID,81.7108,VALID,0,VALID,21.3056,VALID,73,VALID,0.86616,
2003-06-05, 00:18:00,VALID,917.323,VALID,0,VALID,81.7197,VALID,0,VALID,21.2863,VALID,64,VALID,0.940304,
2003-06-05, 00:19:00,VALID,917.333,VALID,0,VALID,82.1889,VALID,-0.0169808,VALID,21.2184,VALID,98,VALID,0.811498,
2003-06-05, 00:20:00,VALID,917.332,VALID,0,VALID,82.4101,VALID,0,VALID,21.1606,VALID,69,VALID,1.28294,
2003-06-05, 00:21:00,VALID,917.316,VALID,0,VALID,82.4229,VALID,-0.0169808,VALID,21.1568,VALID,71,VALID,0.830181,
2003-06-05, 00:22:00,VALID,917.289,VALID,0,VALID,82.5882,VALID,0,VALID,21.1382,VALID,83,VALID,0.684495,
2003-06-05, 00:23:00,VALID,917.296,VALID,0,VALID,82.7675,VALID,0,VALID,21.1019,VALID,115,VALID,0.450921,
2003-06-05, 00:24:00,VALID,917.293,VALID,0,VALID,82.9786,VALID,-0.0509425,VALID,21.0538,VALID,116,VALID,0.269531,
2003-06-05, 00:25:00,VALID,917.291,VALID,0,VALID,83.1057,VALID,0,VALID,21.0115,VALID,138,VALID,0.539885,
2003-06-05, 00:26:00,VALID,917.291,VALID,0,VALID,83.5253,VALID,-0.0509425,VALID,20.9415,VALID,180,VALID,0.887247,
2003-06-05, 00:27:00,VALID,917.284,VALID,0,VALID,83.9628,VALID,-0.101885,VALID,20.9003,VALID,166,VALID,0.719401,
2003-06-05, 00:28:00,VALID,917.294,VALID,0,VALID,84.5528,VALID,-0.101885,VALID,20.8422,VALID,170,VALID,0.851563,
2003-06-05, 00:29:00,VALID,917.292,VALID,0,VALID,84.7385,VALID,-0.101885,VALID,20.7935,VALID,175,VALID,0.739104,
2003-06-05, 00:30:00,VALID,917.284,VALID,0,VALID,84.8478,VALID,-0.101885,VALID,20.7192,VALID,170,VALID,0.56799,
2003-06-05, 00:31:00,VALID,917.285,VALID,0,VALID,85.1403,VALID,-0.101885,VALID,20.6522,VALID,180,VALID,0.312277,
2003-06-05, 00:32:00,VALID,917.272,VALID,0,VALID,85.5586,VALID,-0.101885,VALID,20.5871,VALID,159,VALID,0.662054,
2003-06-05, 00:33:00,VALID,917.253,VALID,0,VALID,85.3628,VALID,-0.118866,VALID,20.5839,VALID,166,VALID,0.618832,
2003-06-05, 00:34:00,VALID,917.225,VALID,0,VALID,85.3755,VALID,-0.101885,VALID,20.6005,VALID,207,VALID,0.516426,
2003-06-05, 00:35:00,VALID,917.205,VALID,0,VALID,85.3946,VALID,-0.0849042,VALID,20.5677,VALID,197,VALID,0.508594,
2003-06-05, 00:36:00,VALID,917.185,VALID,0,VALID,85.1937,VALID,-0.101885,VALID,20.5091,VALID,171,VALID,1.00822,
2003-06-05, 00:37:00,VALID,917.177,VALID,0,VALID,86.0368,VALID,-0.101885,VALID,20.4547,VALID,175,VALID,1.21242,
2003-06-05, 00:38:00,VALID,917.147,VALID,0,VALID,86.1003,VALID,-0.118866,VALID,20.4711,VALID,183,VALID,0.969551,
2003-06-05, 00:39:00,VALID,917.105,VALID,0,VALID,85.8905,VALID,-0.118866,VALID,20.4806,VALID,179,VALID,0.735777,
2003-06-05, 00:40:00,VALID,917.081,VALID,0,VALID,85.8168,VALID,-0.101885,VALID,20.5032,VALID,179,VALID,1.38301,
2003-06-05, 00:41:00,VALID,917.06,VALID,0,VALID,85.5052,VALID,-0.0509425,VALID,20.493,VALID,180,VALID,0.736607,
2003-06-05, 00:42:00,VALID,917.043,VALID,0,VALID,85.7379,VALID,-0.0169808,VALID,20.437,VALID,193,VALID,0.585938,
2003-06-05, 00:43:00,VALID,917.036,VALID,0,VALID,85.7977,VALID,0,VALID,20.4112,VALID,187,VALID,0.217014,
2003-06-05, 00:44:00,VALID,917.048,VALID,0,VALID,85.7214,VALID,0,VALID,20.3566,VALID,186,VALID,0.0731337,
2003-06-05, 00:45:00,VALID,917.06,VALID,0,VALID,86.4093,VALID,0,VALID,20.285,VALID,163,VALID,0.204814,
2003-06-05, 00:46:00,VALID,917.064,VALID,0,VALID,86.745,VALID,0,VALID,20.2307,VALID,163,VALID,0.23273,
2003-06-05, 00:47:00,VALID,917.061,VALID,0,VALID,87.0121,VALID,0,VALID,20.1827,VALID,187,VALID,0.536529,
2003-06-05, 00:48:00,VALID,917.041,VALID,0,VALID,87.3669,VALID,0,VALID,20.1567,VALID,160,VALID,0.752745,
2003-06-05, 00:49:00,VALID,917.031,VALID,0,VALID,87.1939,VALID,0,VALID,20.1438,VALID,162,VALID,0.298438,
2003-06-05, 00:50:00,VALID,917.006,VALID,0,VALID,87.0464,VALID,0.0169808,VALID,20.1244,VALID,164,VALID,0.360609,
2003-06-05, 00:51:00,VALID,916.993,VALID,0,VALID,87.2359,VALID,-0.0169808,VALID,20.0824,VALID,173,VALID,0.566723,
2003-06-05, 00:52:00,VALID,917.002,VALID,0,VALID,87.6059,VALID,0,VALID,20.0568,VALID,183,VALID,0.233232,
2003-06-05, 00:53:00,VALID,916.993,VALID,0,VALID,87.756,VALID,0,VALID,20.0238,VALID,183,VALID,0,
2003-06-05, 00:54:00,VALID,917.004,VALID,0,VALID,87.7242,VALID,0,VALID,19.992,VALID,183,VALID,0.153166,
2003-06-05, 00:55:00,VALID,917.001,VALID,0,VALID,88.1171,VALID,0,VALID,19.924,VALID,166,VALID,0.529811,
2003-06-05, 00:56:00,VALID,916.996,VALID,0,VALID,88.2354,VALID,0.0169808,VALID,19.8855,VALID,168,VALID,0.531445,
2003-06-05, 00:57:00,VALID,916.971,VALID,0,VALID,88.6677,VALID,0,VALID,19.8433,VALID,150,VALID,0.46895,
2003-06-05, 00:58:00,VALID,916.957,VALID,0,VALID,88.2951,VALID,-0.0169808,VALID,19.8468,VALID,97,VALID,1.0058,
2003-06-05, 00:59:00,VALID,916.954,VALID,0,VALID,88.2977,VALID,0,VALID,19.8728,VALID,99,VALID,0.451953,
2003-06-05, 01:00:00,VALID,916.94,VALID,0,VALID,88.36,VALID,0,VALID,19.914,VALID,99,VALID,0.314019,
2003-06-05, 01:01:00,VALID,916.938,VALID,0,VALID,87.803,VALID,0,VALID,19.9952,VALID,146,VALID,0.993707,
2003-06-05, 01:02:00,VALID,916.905,VALID,0,VALID,86.9104,VALID,0,VALID,20.108,VALID,137,VALID,0.883614,
2003-06-05, 01:03:00,VALID,916.904,VALID,0,VALID,86.4704,VALID,-0.0339617,VALID,20.2212,VALID,115,VALID,0.784539,
2003-06-05, 01:04:00,VALID,916.891,VALID,0,VALID,85.3056,VALID,-0.0339617,VALID,20.4177,VALID,100,VALID,0.965872,
2003-06-05, 01:05:00,VALID,916.882,VALID,0,VALID,83.9017,VALID,-0.0509425,VALID,20.6698,VALID,103,VALID,0.813978,
2003-06-05, 01:06:00,VALID,916.884,VALID,0,VALID,82.5767,VALID,0,VALID,20.903,VALID,147,VALID,0.472439,
2003-06-05, 01:07:00,VALID,916.88,VALID,0,VALID,82.5335,VALID,-0.0169808,VALID,20.9768,VALID,150,VALID,1.0038,
2003-06-05, 01:08:00,VALID,916.881,VALID,0,VALID,82.4648,VALID,0,VALID,20.9967,VALID,150,VALID,0.691612,
2003-06-05, 01:09:00,VALID,916.873,VALID,0,VALID,82.8501,VALID,0,VALID,20.9383,VALID,149,VALID,0.528045,
2003-06-05, 01:10:00,VALID,916.865,VALID,0,VALID,83.4872,VALID,-0.0169808,VALID,20.8344,VALID,169,VALID,0.861178,
2003-06-05, 01:11:00,VALID,916.866,VALID,0,VALID,83.9475,VALID,-0.0509425,VALID,20.7868,VALID,173,VALID,0.941512,
2003-06-05, 01:12:00,VALID,916.866,VALID,0,VALID,84.0454,VALID,-0.118866,VALID,20.7744,VALID,181,VALID,1,
2003-06-05, 01:13:00,VALID,916.842,VALID,0,VALID,83.6741,VALID,-0.135847,VALID,20.8266,VALID,176,VALID,1.15405,
2003-06-05, 01:14:00,VALID,916.848,VALID,0,VALID,83.547,VALID,-0.101885,VALID,20.8193,VALID,126,VALID,0.605369,
2003-06-05, 01:15:00,VALID,916.83,VALID,0,VALID,84.5248,VALID,-0.101885,VALID,20.7136,VALID,99,VALID,0.778952,
2003-06-05, 01:16:00,VALID,916.805,VALID,0,VALID,84.9572,VALID,-0.0849042,VALID,20.5583,VALID,93,VALID,0.452097,
2003-06-05, 01:17:00,VALID,916.779,VALID,0,VALID,85.8371,VALID,-0.101885,VALID,20.3777,VALID,96,VALID,0.51837,
2003-06-05, 01:18:00,VALID,916.751,VALID,0,VALID,86.6484,VALID,-0.101885,VALID,20.2779,VALID,117,VALID,0.671875,
2003-06-05, 01:19:00,VALID,916.734,VALID,0,VALID,86.45,VALID,-0.101885,VALID,20.2742,VALID,104,VALID,0.780599,
2003-06-05, 01:20:00,VALID,916.729,VALID,0,VALID,86.1271,VALID,-0.0679233,VALID,20.336,VALID,112,VALID,0.571957,
2003-06-05, 01:21:00,VALID,916.729,VALID,0,VALID,85.8537,VALID,-0.101885,VALID,20.4065,VALID,137,VALID,0.778083,
2003-06-05, 01:22:00,VALID,916.745,VALID,0,VALID,84.858,VALID,-0.101885,VALID,20.4908,VALID,118,VALID,0.708036,
2003-06-05, 01:23:00,VALID,916.741,VALID,0,VALID,84.8504,VALID,-0.101885,VALID,20.494,VALID,115,VALID,0.800893,
2003-06-05, 01:24:00,VALID,916.749,VALID,0,VALID,85.0398,VALID,-0.101885,VALID,20.4649,VALID,149,VALID,0.525493,
2003-06-05, 01:25:00,VALID,916.755,VALID,0,VALID,85.1403,VALID,-0.118866,VALID,20.4682,VALID,110,VALID,0.5625,
2003-06-05, 01:26:00,VALID,916.763,VALID,0,VALID,85.3603,VALID,-0.0509425,VALID,20.4254,VALID,95,VALID,0.146484,
2003-06-05, 01:27:00,VALID,916.756,VALID,0,VALID,85.9083,VALID,0,VALID,20.373,VALID,143,VALID,0.858347,
2003-06-05, 01:28:00,VALID,916.75,VALID,0,VALID,85.6947,VALID,0,VALID,20.4023,VALID,130,VALID,0.682432,
2003-06-05, 01:29:00,VALID,916.737,VALID,0,VALID,85.3425,VALID,0,VALID,20.4435,VALID,131,VALID,0.48097,
2003-06-05, 01:30:00,VALID,916.712,VALID,0,VALID,85.2357,VALID,0,VALID,20.4822,VALID,131,VALID,0.419671,
2003-06-05, 01:31:00,VALID,916.703,VALID,0,VALID,84.9152,VALID,0,VALID,20.5374,VALID,141,VALID,0.935497,
2003-06-05, 01:32:00,VALID,916.697,VALID,0,VALID,84.8694,VALID,-0.0169808,VALID,20.567,VALID,149,VALID,0.909152,
2003-06-05, 01:33:00,VALID,916.701,VALID,0,VALID,84.7728,VALID,0,VALID,20.5828,VALID,140,VALID,0.80957,
2003-06-05, 01:34:00,VALID,916.695,VALID,0,VALID,84.5655,VALID,-0.0169808,VALID,20.5831,VALID,126,VALID,0.824436,
2003-06-05, 01:35:00,VALID,916.71,VALID,0,VALID,84.7842,VALID,0.0169808,VALID,20.5635,VALID,107,VALID,0.729384,
2003-06-05, 01:36:00,VALID,916.706,VALID,0,VALID,84.3849,VALID,0,VALID,20.5153,VALID,76,VALID,0.609375,
2003-06-05, 01:37:00,VALID,916.705,VALID,0,VALID,84.9928,VALID,0,VALID,20.3315,VALID,71,VALID,0.691406,
2003-06-05, 01:38:00,VALID,916.689,VALID,0,VALID,86.4271,VALID,0,VALID,20.1631,VALID,74,VALID,0.71136,
2003-06-05, 01:39:00,VALID,916.677,VALID,0,VALID,87.1888,VALID,-0.0169808,VALID,20.1117,VALID,99,VALID,0.625211,
2003-06-05, 01:40:00,VALID,916.675,VALID,0,VALID,87.0375,VALID,-0.0169808,VALID,20.1472,VALID,112,VALID,0.515179,
2003-06-05, 01:41:00,VALID,916.664,VALID,0,VALID,86.6192,VALID,0,VALID,20.215,VALID,118,VALID,0.588816,
2003-06-05, 01:42:00,VALID,916.648,VALID,0,VALID,86.1665,VALID,0,VALID,20.2791,VALID,92,VALID,0.846706,
2003-06-05, 01:43:00,VALID,916.655,VALID,0,VALID,85.7176,VALID,0,VALID,20.3566,VALID,106,VALID,0.618902,
2003-06-05, 01:44:00,VALID,916.641,VALID,0,VALID,85.2001,VALID,0.0169808,VALID,20.4375,VALID,106,VALID,0.688477,
2003-06-05, 01:45:00,VALID,916.659,VALID,0,VALID,84.8669,VALID,0,VALID,20.5175,VALID,118,VALID,0.555715,
2003-06-05, 01:46:00,VALID,916.656,VALID,0,VALID,84.2959,VALID,0.0169808,VALID,20.5831,VALID,135,VALID,0.169613,
2003-06-05, 01:47:00,VALID,916.64,VALID,0,VALID,84.2832,VALID,0,VALID,20.589,VALID,135,VALID,0.06875,
2003-06-05, 01:48:00,VALID,916.63,VALID,0,VALID,82.8514,VALID,0,VALID,20.5081,VALID,100,VALID,0.116787,
2003-06-05, 01:49:00,VALID,916.615,VALID,0,VALID,83.9869,VALID,0.0169808,VALID,20.3663,VALID,95,VALID,0.122545,
2003-06-05, 01:50:00,VALID,916.637,VALID,0,VALID,85.6235,VALID,0.0169808,VALID,20.2145,VALID,95,VALID,0.249805,
2003-06-05, 01:51:00,VALID,916.634,VALID,0,VALID,85.9719,VALID,0.0169808,VALID,20.1795,VALID,94,VALID,0.438585,
2003-06-05, 01:52:00,VALID,916.636,VALID,0,VALID,86.2084,VALID,0.0169808,VALID,20.1507,VALID,264,VALID,0.609375,
2003-06-05, 01:53:00,VALID,916.639,VALID,0,VALID,86.9943,VALID,0,VALID,20.0986,VALID,248,VALID,0.8748,
2003-06-05, 01:54:00,VALID,916.645,VALID,0,VALID,87.8997,VALID,0,VALID,20.0499,VALID,258,VALID,0.651933,
2003-06-05, 01:55:00,VALID,916.653,VALID,0,VALID,87.3198,VALID,-0.0169808,VALID,20.0049,VALID,272,VALID,0.511719,
2003-06-05, 01:56:00,VALID,916.653,VALID,0,VALID,85.7392,VALID,-0.0169808,VALID,19.8026,VALID,278,VALID,0.394215,
2003-06-05, 01:57:00,VALID,916.644,VALID,0,VALID,87.9569,VALID,0.0339617,VALID,19.6439,VALID,241,VALID,0.501736,
2003-06-05, 01:58:00,VALID,916.646,VALID,0,VALID,88.8623,VALID,0,VALID,19.5597,VALID,179,VALID,0.780828,
2003-06-05, 01:59:00,VALID,916.652,VALID,0,VALID,89.7549,VALID,0.0339617,VALID,19.4495,VALID,183,VALID,0.649465,
2003-06-05, 02:00:00,VALID,916.642,VALID,0,VALID,90.6743,VALID,0.0339617,VALID,19.4045,VALID,195,VALID,0.406651,
2003-06-05, 02:01:00,VALID,916.624,VALID,0,VALID,90.9846,VALID,0.0339617,VALID,19.3983,VALID,231,VALID,0.760617,
2003-06-05, 02:02:00,VALID,916.592,VALID,0,VALID,90.9693,VALID,0.0169808,VALID,19.4048,VALID,233,VALID,0.791174,
2003-06-05, 02:03:00,VALID,916.589,VALID,0,VALID,91.1766,VALID,0.0339617,VALID,19.4274,VALID,214,VALID,0.958882,
2003-06-05, 02:04:00,VALID,916.558,VALID,0,VALID,90.7951,VALID,0.0169808,VALID,19.4336,VALID,195,VALID,0.820112,
2003-06-05, 02:05:00,VALID,916.544,VALID,0,VALID,90.9986,VALID,0,VALID,19.3981,VALID,210,VALID,0.661184,
2003-06-05, 02:06:00,VALID,916.544,VALID,0,VALID,91.0939,VALID,0,VALID,19.4013,VALID,215,VALID,0.757123,
2003-06-05, 02:07:00,VALID,916.547,VALID,0,VALID,91.038,VALID,0.0169808,VALID,19.4212,VALID,196,VALID,0.444285,
2003-06-05, 02:08:00,VALID,916.54,VALID,0,VALID,90.5777,VALID,0.0169808,VALID,19.4045,VALID,159,VALID,0.965583,
2003-06-05, 02:09:00,VALID,916.558,VALID,0,VALID,90.9464,VALID,0,VALID,19.366,VALID,187,VALID,0.637804,
2003-06-05, 02:10:00,VALID,916.551,VALID,0,VALID,91.3343,VALID,0.0509425,VALID,19.3529,VALID,184,VALID,0.568142,
2003-06-05, 02:11:00,VALID,916.54,VALID,0,VALID,91.3673,VALID,0,VALID,19.3658,VALID,206,VALID,0.70847,
2003-06-05, 02:12:00,VALID,916.554,VALID,0,VALID,91.1461,VALID,0.0339617,VALID,19.3824,VALID,196,VALID,0.384079,
2003-06-05, 02:13:00,VALID,916.545,VALID,0,VALID,91.0189,VALID,0.0679233,VALID,19.3921,VALID,215,VALID,0.624554,
2003-06-05, 02:14:00,VALID,916.542,VALID,0,VALID,90.9617,VALID,0.0339617,VALID,19.4348,VALID,225,VALID,0.480134,
2003-06-05, 02:15:00,VALID,916.551,VALID,0,VALID,90.6819,VALID,0,VALID,19.4604,VALID,210,VALID,0.467516,
2003-06-05, 02:16:00,VALID,916.533,VALID,0,VALID,90.6273,VALID,0,VALID,19.4668,VALID,210,VALID,0.325321,
2003-06-05, 02:17:00,VALID,916.511,VALID,0,VALID,90.0716,VALID,0,VALID,19.441,VALID,207,VALID,0.0404297,
2003-06-05, 02:18:00,VALID,916.492,VALID,0,VALID,90.4162,VALID,0.0169808,VALID,19.373,VALID,155,VALID,0.385485,
2003-06-05, 02:19:00,VALID,916.478,VALID,0,VALID,90.6107,VALID,0,VALID,19.338,VALID,165,VALID,0.766258,
2003-06-05, 02:20:00,VALID,916.453,VALID,0,VALID,91.0889,VALID,0.0169808,VALID,19.3082,VALID,188,VALID,0.465144,
2003-06-05, 02:21:00,VALID,916.424,VALID,0,VALID,91.0723,VALID,0,VALID,19.302,VALID,185,VALID,0.436899,
2003-06-05, 02:22:00,VALID,916.422,VALID,0,VALID,91.0634,VALID,0.0169808,VALID,19.2992,VALID,129,VALID,0.427083,
2003-06-05, 02:23:00,VALID,916.417,VALID,0,VALID,90.8968,VALID,0.0169808,VALID,19.2637,VALID,125,VALID,0.373884,
2003-06-05, 02:24:00,VALID,916.407,VALID,0,VALID,91.0507,VALID,0.0339617,VALID,19.2508,VALID,158,VALID,0.519727,
2003-06-05, 02:25:00,VALID,916.407,VALID,0,VALID,90.9007,VALID,0.0339617,VALID,19.2406,VALID,163,VALID,0.529514,
2003-06-05, 02:26:00,VALID,916.404,VALID,0,VALID,90.8574,VALID,0.0169808,VALID,19.2111,VALID,170,VALID,0.293403,
2003-06-05, 02:27:00,VALID,916.409,VALID,0,VALID,90.7519,VALID,0.0509425,VALID,19.1632,VALID,118,VALID,0.286318,
2003-06-05, 02:28:00,VALID,916.425,VALID,0,VALID,90.893,VALID,0.0339617,VALID,19.0574,VALID,63,VALID,0.870477,
2003-06-05, 02:29:00,VALID,916.46,VALID,0,VALID,91.8938,VALID,0.0169808,VALID,18.9668,VALID,70,VALID,0.828547,
2003-06-05, 02:30:00,VALID,916.503,VALID,0,VALID,92.4266,VALID,0.0169808,VALID,18.9022,VALID,63,VALID,0.79603,
2003-06-05, 02:31:00,VALID,916.516,VALID,0,VALID,92.4838,VALID,0.0169808,VALID,18.8563,VALID,49,VALID,0.340625,
2003-06-05, 02:32:00,VALID,916.52,VALID,0,VALID,93.0115,VALID,-0.0169808,VALID,18.8441,VALID,49,VALID,0.0678454,
2003-06-05, 02:33:00,VALID,916.531,VALID,0,VALID,92.8869,VALID,0,VALID,18.8538,VALID,78,VALID,0.410473,
2003-06-05, 02:34:00,VALID,916.548,VALID,0,VALID,92.7127,VALID,0,VALID,18.8347,VALID,110,VALID,0.396151,
2003-06-05, 02:35:00,VALID,916.513,VALID,0,VALID,92.8271,VALID,0.0339617,VALID,18.8151,VALID,111,VALID,0.0457031,
2003-06-05, 02:36:00,VALID,916.466,VALID,0,VALID,93.0255,VALID,0,VALID,18.8248,VALID,111,VALID,0.0139803,
2003-06-05, 02:37:00,VALID,916.468,VALID,0,VALID,93.0853,VALID,0,VALID,18.8216,VALID,150,VALID,0.507401,
2003-06-05, 02:38:00,VALID,916.457,VALID,0,VALID,92.3083,VALID,-0.0169808,VALID,18.7932,VALID,141,VALID,0.491992,
2003-06-05, 02:39:00,VALID,916.477,VALID,0,VALID,91.0151,VALID,-0.101885,VALID,18.6199,VALID,30,VALID,0.69972,
2003-06-05, 02:40:00,VALID,916.484,VALID,0,VALID,92.6033,VALID,-0.101885,VALID,18.4873,VALID,16,VALID,0.669866,
2003-06-05, 02:41:00,VALID,916.487,VALID,0,VALID,93.5392,VALID,-0.0679233,VALID,18.4548,VALID,24,VALID,0.682813,
2003-06-05, 02:42:00,VALID,916.509,VALID,0,VALID,94.3047,VALID,-0.0509425,VALID,18.4474,VALID,71,VALID,0.981337,
2003-06-05, 02:43:00,VALID,916.531,VALID,0,VALID,94.9469,VALID,-0.0849042,VALID,18.5256,VALID,75,VALID,0.19553,
2003-06-05, 02:44:00,VALID,916.51,VALID,0,VALID,94.4319,VALID,0,VALID,18.5832,VALID,128,VALID,0.232772,
2003-06-05, 02:45:00,VALID,916.498,VALID,0,VALID,94.1204,VALID,0,VALID,18.6189,VALID,163,VALID,0.0988898,
2003-06-05, 02:46:00,VALID,916.499,VALID,0,VALID,93.1336,VALID,0,VALID,18.5927,VALID,151,VALID,0.585321,
2003-06-05, 02:47:00,VALID,916.491,VALID,0,VALID,93.1921,VALID,-0.0169808,VALID,18.5576,VALID,150,VALID,0.105574,
2003-06-05, 02:48:00,VALID,916.486,VALID,0,VALID,92.5448,VALID,-0.0169808,VALID,18.5035,VALID,103,VALID,0.280382,
2003-06-05, 02:49:00,VALID,916.498,VALID,0,VALID,93.0293,VALID,-0.0169808,VALID,18.3801,VALID,73,VALID,0.438133,
2003-06-05, 02:50:00,VALID,916.507,VALID,0,VALID,93.6117,VALID,-0.0169808,VALID,18.3255,VALID,73,VALID,0.150288,
2003-06-05, 02:51:00,VALID,916.501,VALID,0,VALID,94.4573,VALID,-0.0679233,VALID,18.2836,VALID,73,VALID,0,
2003-06-05, 02:52:00,VALID,916.491,VALID,0,VALID,94.7256,VALID,-0.0339617,VALID,18.2969,VALID,73,VALID,0.0010016,
2003-06-05, 02:53:00,VALID,916.49,VALID,0,VALID,94.7803,VALID,-0.0169808,VALID,18.2866,VALID,73,VALID,0.0519426,
2003-06-05, 02:54:00,VALID,916.496,VALID,0,VALID,95.0156,VALID,-0.0679233,VALID,18.2741,VALID,73,VALID,0,
2003-06-05, 02:55:00,VALID,916.495,VALID,0,VALID,95.3945,VALID,-0.0169808,VALID,18.2935,VALID,73,VALID,0,
2003-06-05, 02:56:00,VALID,916.494,VALID,0,VALID,95.3932,VALID,-0.0509425,VALID,18.3197,VALID,73,VALID,0,
2003-06-05, 02:57:00,VALID,916.494,VALID,0,VALID,95.1554,VALID,-0.0509425,VALID,18.3096,VALID,73,VALID,0,
2003-06-05, 02:58:00,VALID,916.523,VALID,0,VALID,93.543,VALID,-0.0679233,VALID,18.1967,VALID,73,VALID,0.512952,
2003-06-05, 02:59:00,VALID,916.543,VALID,0,VALID,94.8096,VALID,-0.0509425,VALID,18.1098,VALID,74,VALID,0.563978,
2003-06-05, 03:00:00,VALID,916.556,VALID,0,VALID,95.9489,VALID,-0.0679233,VALID,18.1229,VALID,76,VALID,0.345052,
2003-06-05, 03:01:00,VALID,916.56,VALID,0,VALID,96.0926,VALID,-0.0339617,VALID,18.1711,VALID,76,VALID,0.0444878,
2003-06-05, 03:02:00,VALID,916.562,VALID,0,VALID,95.2686,VALID,-0.0509425,VALID,18.1296,VALID,76,VALID,0.460321,
2003-06-05, 03:03:00,VALID,916.582,VALID,0,VALID,95.7111,VALID,-0.0509425,VALID,18.0939,VALID,76,VALID,0.549409,
2003-06-05, 03:04:00,VALID,916.607,VALID,0,VALID,95.6348,VALID,-0.0509425,VALID,18.0676,VALID,76,VALID,0.461161,
2003-06-05, 03:05:00,VALID,916.625,VALID,0,VALID,95.1491,VALID,-0.0679233,VALID,17.965,VALID,76,VALID,0.749554,
2003-06-05, 03:06:00,VALID,916.63,VALID,0,VALID,96.0494,VALID,-0.0509425,VALID,17.9387,VALID,76,VALID,0.417558,
2003-06-05, 03:07:00,VALID,916.635,VALID,0,VALID,95.4148,VALID,-0.0679233,VALID,17.897,VALID,76,VALID,0.503005,
2003-06-05, 03:08:00,VALID,916.629,VALID,0,VALID,95.7455,VALID,-0.0339617,VALID,17.823,VALID,76,VALID,0.491211,
2003-06-05, 03:09:00,VALID,916.62,VALID,0,VALID,96.1206,VALID,-0.0849042,VALID,17.8043,VALID,76,VALID,0.592105,
2003-06-05, 03:10:00,VALID,916.613,VALID,0,VALID,96.4868,VALID,-0.0679233,VALID,17.7979,VALID,76,VALID,0.6231,
2003-06-05, 03:11:00,VALID,916.603,VALID,0,VALID,97.2065,VALID,-0.0509425,VALID,17.8258,VALID,76,VALID,0.471755,
2003-06-05, 03:12:00,VALID,916.596,VALID,0,VALID,97.368,VALID,0.0169808,VALID,17.886,VALID,85,VALID,0.47516,
2003-06-05, 03:13:00,VALID,916.632,VALID,0,VALID,97.4316,VALID,0.0509425,VALID,17.9576,VALID,104,VALID,0.38121,
2003-06-05, 03:14:00,VALID,916.637,VALID,0,VALID,96.0926,VALID,0.0679233,VALID,17.9189,VALID,74,VALID,0.700893,
2003-06-05, 03:15:00,VALID,916.655,VALID,0,VALID,95.8154,VALID,0,VALID,17.8058,VALID,88,VALID,0.882227,
2003-06-05, 03:16:00,VALID,916.672,VALID,0,VALID,96.8123,VALID,0,VALID,17.835,VALID,101,VALID,1.05621,
2003-06-05, 03:17:00,VALID,916.69,VALID,0,VALID,97.1964,VALID,0.0339617,VALID,17.9252,VALID,78,VALID,1.34592,
2003-06-05, 03:18:00,VALID,916.709,VALID,0,VALID,96.9306,VALID,0.0339617,VALID,18.0058,VALID,77,VALID,1.16617,
2003-06-05, 03:19:00,VALID,916.714,VALID,0,VALID,96.5517,VALID,0.0509425,VALID,18.0644,VALID,76,VALID,0.893298,
2003-06-05, 03:20:00,VALID,916.719,VALID,0,VALID,96.6013,VALID,0,VALID,18.1063,VALID,80,VALID,0.972128,
2003-06-05, 03:21:00,VALID,916.71,VALID,0,VALID,96.3635,VALID,0.0169808,VALID,18.1478,VALID,80,VALID,0.91364,
2003-06-05, 03:22:00,VALID,916.692,VALID,0,VALID,96.1613,VALID,0.0169808,VALID,18.1874,VALID,80,VALID,0.994866,
2003-06-05, 03:23:00,VALID,916.673,VALID,0,VALID,96.5122,VALID,0.0339617,VALID,18.2282,VALID,81,VALID,0.901521,
2003-06-05, 03:24:00,VALID,916.642,VALID,0,VALID,96.2872,VALID,0.0169808,VALID,18.3354,VALID,98,VALID,0.790963,
2003-06-05, 03:25:00,VALID,916.625,VALID,0,VALID,95.8803,VALID,0.0509425,VALID,18.3861,VALID,105,VALID,0.652249,
2003-06-05, 03:26:00,VALID,916.629,VALID,0,VALID,95.4276,VALID,-0.0339617,VALID,18.4225,VALID,120,VALID,0.594336,
2003-06-05, 03:27:00,VALID,916.637,VALID,0,VALID,95.2712,VALID,-0.0509425,VALID,18.4431,VALID,97,VALID,0.991571,
2003-06-05, 03:28:00,VALID,916.643,VALID,0,VALID,95.2623,VALID,-0.0679233,VALID,18.4813,VALID,88,VALID,1.10403,
2003-06-05, 03:29:00,VALID,916.653,VALID,0,VALID,94.7676,VALID,-0.0509425,VALID,18.491,VALID,120,VALID,0.856836,
2003-06-05, 03:30:00,VALID,916.658,VALID,0,VALID,94.4294,VALID,-0.0679233,VALID,18.485,VALID,134,VALID,0.758013,
2003-06-05, 03:31:00,VALID,916.664,VALID,0,VALID,94.5247,VALID,-0.0679233,VALID,18.4657,VALID,142,VALID,0.824107,
2003-06-05, 03:32:00,VALID,916.659,VALID,0,VALID,94.3225,VALID,-0.0339617,VALID,18.4781,VALID,131,VALID,0.612305,
2003-06-05, 03:33:00,VALID,916.655,VALID,0,VALID,93.9385,VALID,-0.0679233,VALID,18.4587,VALID,124,VALID,0.538628,
2003-06-05, 03:34:00,VALID,916.65,VALID,0,VALID,94.3378,VALID,-0.101885,VALID,18.4562,VALID,123,VALID,0.788845,
2003-06-05, 03:35:00,VALID,916.642,VALID,0,VALID,94.5273,VALID,-0.0679233,VALID,18.485,VALID,128,VALID,0.714543,
2003-06-05, 03:36:00,VALID,916.622,VALID,0,VALID,94.5489,VALID,-0.0509425,VALID,18.5238,VALID,140,VALID,1.02488,